EHI
0 0 0 0 0 0 0 0 0 0 0 0 1 2 4 5 6 5 3 2 1 2 4 6 7 7 7 6 6 6 4 2 0 0 0 0 0 0 0 0 0 0 0 0
0 0 0 0 0 0 0 0 0 0 0 0 1 2 3 4 4 4 3 3 2 2 2 3 4 5 5 6 5 4 3 2 1 0 0 0 0 0 0 0 0 0 0 0
0 0 0 0 0 0 0 0 0 0 0 0 0 1 1 2 2 3 3 3 3 2 1 2 2 2 3 4 4 2 2 1 1 0 1 1 0 0 0 0 0 0 0 0
0 0 0 0 0 0 0 0 0 0 0 0 0 0 0 0 1 2 3 3 3 1 1 2 3 2 2 3 3 2 1 0 0 0 1 1 0 0 0 0 0 0 0 0
0 0 0 0 0 0 0 0 0 0 0 0 0 0 0 0 0 1 2 3 2 1 1 2 2 2 2 3 3 2 1 0 0 0 0 0 0 0 0 0 0 0 0 0
0 0 0 0 0 0 0 0 0 0 0 0 0 0 0 0 0 0 1 1 2 2 1 1 1 1 1 2 3 2 1 0 0 0 0 0 0 0 0 0 0 0 0 0
0 0 0 0 0 0 0 0 0 0 0 0 0 0 0 0 0 0 0 0 1 2 1 0 0 0 1 2 3 2 1 0 0 0 0 0 0 0 0 0 0 0 0 0
0 0 0 0 0 0 0 0 0 0 0 0 0 0 0 0 0 0 0 0 1 1 1 0 0 0 1 3 2 1 0 0 0 0 0 0 0 0 0 0 0 0 0 0
0 0 0 0 0 0 0 0 0 0 0 0 0 0 0 0 0 0 0 1 1 1 0 0 0 1 2 3 2 0 0 0 0 0 0 0 0 0 0 0 0 0 0 0
0 0 0 0 0 0 0 0 0 0 0 0 0 0 0 0 0 0 0 1 2 2 2 1 0 1 2 2 1 0 0 0 0 0 0 0 0 0 0 0 0 0 0 0
0 0 0 0 0 0 0 0 0 0 0 0 0 0 0 0 0 0 0 0 1 3 3 2 0 1 1 1 0 0 0 0 0 0 0 0 0 0 0 0 0 0 0 0
0 0 0 0 0 0 0 0 0 0 0 0 0 0 0 0 0 0 0 0 1 2 2 1 0 1 1 0 0 0 0 0 1 1 1 0 0 0 0 0 0 0 0 0
0 0 0 0 0 0 0 0 0 0 0 0 0 0 0 0 0 0 0 0 0 1 1 0 0 1 1 0 0 0 0 1 2 2 1 0 0 0 0 0 0 0 0 0
0 0 0 0 0 0 0 0 0 0 0 0 0 0 0 0 0 0 0 0 0 0 0 0 0 1 1 0 0 0 0 1 2 2 1 0 0 0 0 0 0 0 0 0
0 0 0 0 0 0 0 0 0 0 0 0 0 0 0 0 0 0 0 0 0 0 0 0 0 0 0 0 0 0 0 1 2 2 1 0 0 0 0 0 0 0 0 0
0 0 0 0 0 0 0 0 0 0 0 0 0 0 0 0 0 0 0 0 0 0 0 0 0 0 0 0 0 0 0 0 1 1 0 0 0 0 0 0 0 0 0 0
0 0 0 0 0 0 0 0 0 0 0 0 0 0 0 0 0 0 0 0 0 0 0 0 0 0 0 0 0 0 0 0 0 0 0 0 0 0 0 0 0 0 0 0
0 0 0 0 0 0 0 0 0 0 0 0 0 0 0 0 0 0 0 0 0 0 0 0 0 0 0 0 0 0 0 0 0 0 0 0 0 0 0 0 0 0 0 0
0 0 0 0 0 0 0 0 0 0 0 0 0 0 0 0 0 0 0 0 0 0 0 0 0 0 0 0 0 0 0 0 0 0 0 0 0 0 0 0 0 0 0 0
0 0 0 0 0 0 0 0 0 0 0 0 0 0 0 0 0 0 0 0 0 0 0 0 0 0 0 0 0 0 0 0 0 0 0 0 0 0 0 0 0 0 0 0
0 0 0 0 0 0 0 0 0 0 0 0 0 0 0 0 0 0 0 0 0 0 0 0 0 0 0 0 0 0 0 0 0 0 0 0 0 0 0 0 0 0 0 0
0 0 0 0 0 0 0 0 0 0 0 0 0 0 0 0 0 0 0 0 0 0 0 0 0 0 0 0 0 0 0 0 0 0 0 0 0 0 0 0 0 0 0 0
0 0 0 0 0 0 0 0 0 0 0 0 0 0 0 0 0 0 0 0 0 0 0 0 0 0 0 0 0 0 0 0 0 0 0 0 0 0 0 0 0 0 0 0
0 0 0 0 0 0 0 0 0 0 0 0 0 0 0 0 0 0 0 0 0 0 0 0 0 0 0 0 0 0 0 0 0 0 0 0 0 0 0 0 0 0 0 0
0 0 0 0 0 0 0 0 0 0 0 0 0 0 0 0 0 0 0 0 0 0 0 0 0 0 0 0 0 0 0 0 0 0 0 0 0 0 0 0 0 0 0 0
0 0 0 0 0 0 0 0 0 0 0 0 0 0 0 0 0 0 0 0 0 0 0 0 0 0 0 0 0 0 0 0 0 0 0 0 0 0 0 0 0 0 0 0
Wind_Speed
1 2 4 7 8 7 4 3 5 3 1 2 2 2 3 3 3 3 3 2 2 1 2 3 3 4 5 4 4 6 6 4 4 3 3 3 2 1 1 1 2 2 3 3
2 5 9 6 4 5 4 3 3 1 1 2 1 2 2 3 3 4 4 3 3 3 3 3 3 4 5 4 4 5 6 5 4 3 2 2 3 2 2 1 2 2 2 3
7 8 3 2 2 3 3 5 4 3 2 3 1 3 2 2 2 3 4 4 4 5 5 4 4 4 6 6 6 6 6 5 4 4 4 3 3 3 2 2 1 2 1 2
7 7 3 2 3 4 4 3 4 4 3 1 1 3 5 3 3 5 6 6 5 5 5 5 6 6 6 6 6 6 5 5 5 5 5 5 4 3 2 1 1 1 2 1
6 2 1 2 3 4 3 4 5 4 3 2 2 1 7 1 4 7 8 8 7 7 7 7 8 8 7 6 6 6 5 5 4 4 5 5 4 2 2 2 2 2 2 2
6 3 3 3 2 4 6 6 6 5 5 2 1 1 7 4 7 6 7 8 8 8 7 7 7 7 6 6 6 6 6 4 4 5 5 6 6 5 4 2 2 1 1 1
4 3 2 3 4 2 4 6 4 5 4 4 2 2 9 7 6 7 9 9 8 8 8 8 8 8 8 8 7 7 7 5 5 5 5 5 5 5 5 4 3 2 1 0
3 5 3 3 5 6 4 6 6 4 4 5 2 5 8 5 4 4 5 6 7 8 8 9 9 9 9 9 8 8 7 6 6 6 5 4 5 4 3 3 3 3 2 2
7 6 1 2 3 8 5 3 4 6 2 2 5 6 8 1 1 4 5 6 8 9 10 10 9 9 9 9 9 9 9 7 6 6 5 5 5 4 4 4 3 2 2 2
9 5 3 2 4 4 4 8 5 5 4 3 5 5 5 5 5 6 7 9 9 9 9 9 9 9 9 9 8 8 8 8 7 6 6 5 5 5 4 4 4 3 3 2
5 5 2 1 4 6 4 4 5 4 4 5 3 8 7 8 9 10 11 11 11 11 11 10 9 9 8 7 8 8 8 7 6 7 6 5 5 4 4 4 4 3 3 3
4 5 2 4 2 3 5 7 8 5 4 4 3 10 6 6 7 8 10 10 9 10 9 9 9 8 8 9 8 9 9 8 8 7 6 6 5 4 4 4 4 4 4 4
5 6 2 5 4 0 2 4 5 5 5 5 5 9 4 1 4 6 7 8 8 8 8 7 7 8 9 10 9 9 9 9 8 7 7 6 6 6 6 5 5 4 4 4
6 4 6 8 7 4 3 4 6 6 5 5 8 8 7 4 5 6 7 8 8 8 9 9 9 9 9 9 9 10 9 8 8 8 8 7 7 7 7 6 5 5 5 5
5 3 4 5 4 3 4 4 7 7 8 8 8 8 10 7 8 8 7 6 7 7 8 10 11 10 9 9 9 9 9 8 8 8 8 9 7 6 6 6 6 5 5 6
3 3 2 2 2 3 3 4 6 6 5 6 5 8 7 4 2 3 5 7 9 9 10 10 9 9 10 11 11 9 9 8 8 9 9 8 6 6 7 7 6 5 6 5
2 4 3 3 1 1 5 6 5 5 5 6 8 8 2 1 3 5 6 7 9 10 9 9 10 11 11 11 10 11 10 8 9 9 8 7 7 7 8 7 6 6 7 5
5 4 3 1 2 5 8 2 3 4 4 4 5 5 3 5 4 2 2 5 6 6 7 8 8 9 8 8 8 7 7 8 8 8 8 7 8 8 7 6 7 7 5 5
4 6 4 3 2 5 5 2 3 3 4 3 4 4 3 2 2 3 2 1 3 4 5 6 7 6 6 7 7 6 6 7 7 8 8 8 8 7 7 7 8 6 5 6
4 4 5 4 3 6 6 1 2 3 4 2 2 2 1 2 2 3 4 2 2 2 1 1 3 4 4 4 6 7 6 6 8 9 8 7 7 7 8 8 7 5 5 7
2 3 3 4 4 7 4 1 3 3 5 1 1 1 2 2 2 3 3 2 2 3 3 3 4 4 3 4 6 5 5 7 8 5 5 4 5 6 6 5 4 4 5 5
5 4 4 4 3 7 1 2 4 5 1 1 1 1 2 1 1 2 3 3 5 6 5 4 4 3 3 5 6 5 5 4 2 3 3 3 3 3 3 3 4 4 5 5
5 6 5 7 7 4 2 2 1 2 1 1 1 1 2 2 2 3 4 5 6 6 4 4 4 5 4 4 4 4 2 2 3 3 2 1 1 1 2 3 4 3 3 4
2 2 3 3 5 4 3 2 1 1 2 1 2 2 3 4 4 5 5 6 6 6 5 4 6 6 5 4 3 2 2 3 4 3 1 1 0 0 1 2 2 3 4 4
2 3 2 3 4 3 2 0 1 3 3 4 4 5 6 7 6 6 6 6 6 6 5 5 6 5 4 4 4 3 3 4 5 3 2 2 1 1 2 2 3 4 5 6
3 5 6 6 5 3 1 1 4 5 5 5 6 7 6 7 7 7 6 5 5 5 5 5 6 5 4 4 3 3 3 4 4 3 2 1 1 1 2 3 4 5 8 10
Wind_Direction
83 64 246 233 208 217 228 229 257 263 163 123 173 216 223 211 196 196 212 216 213 187 152 145 145 148 138 129 133 134 138 143 134 123 123 119 115 102 86 98 115 118 124 126
15 265 245 238 217 212 217 229 242 261 115 124 170 261 236 214 213 212 214 212 188 163 140 136 157 168 146 140 153 151 155 154 149 137 128 126 121 110 96 72 83 99 126 137
211 247 260 241 248 199 218 197 206 188 105 60 55 325 262 241 214 217 218 210 197 186 171 165 168 174 149 161 170 167 159 149 140 128 113 93 74 61 59 54 51 38 104 142
234 261 265 261 249 179 232 218 158 138 121 319 72 287 276 230 238 224 217 209 207 194 179 174 171 180 177 178 165 157 149 140 138 136 136 135 135 141 160 136 91 47 60 104
245 250 269 261 255 168 162 77 87 95 107 50 17 236 284 217 234 231 218 213 208 196 188 183 181 186 183 174 162 153 146 143 143 142 140 132 128 136 124 105 93 66 43 53
245 248 220 203 52 101 115 74 57 52 63 351 257 203 279 230 219 217 210 209 203 195 189 183 180 175 176 165 157 153 151 152 149 143 141 145 147 147 138 135 128 93 48 33
289 281 218 128 99 58 89 88 30 357 4 265 251 232 255 249 221 201 199 201 194 187 183 177 176 179 180 173 169 164 161 163 159 152 155 161 160 158 161 165 165 159 156 182
211 276 230 178 167 173 174 139 156 206 237 282 304 247 257 263 231 196 188 182 178 183 187 188 188 185 183 178 173 169 170 172 169 167 171 170 165 162 168 173 173 181 190 203
186 237 255 182 156 138 138 153 151 127 132 303 286 283 298 275 183 183 180 176 188 192 194 195 190 187 183 179 180 179 177 178 180 178 172 175 176 176 179 178 177 186 200 207
165 206 240 188 96 54 134 140 105 118 146 266 293 280 255 236 212 200 195 198 202 196 197 195 191 190 188 185 179 174 178 184 183 180 182 185 186 186 181 173 186 199 208 208
148 166 247 123 176 172 127 114 111 116 152 163 258 273 231 211 199 195 203 204 202 199 199 197 194 189 183 174 172 177 182 180 182 186 188 185 186 185 182 190 204 204 207 208
146 129 206 250 244 159 164 166 149 154 203 178 185 266 269 216 205 195 201 205 203 201 201 197 189 179 177 179 181 185 185 186 191 187 183 188 186 182 191 207 215 209 215 219
140 119 90 345 342 326 173 158 148 127 121 157 180 261 304 225 212 210 205 204 202 198 196 191 184 184 189 188 187 189 190 194 189 180 181 186 188 192 204 213 215 211 215 224
115 127 166 197 218 200 200 173 152 136 154 197 220 250 289 281 241 231 220 208 199 197 193 190 192 194 193 190 188 189 193 191 183 179 183 192 199 202 208 211 212 213 216 222
107 169 210 229 226 192 211 205 178 187 190 192 227 228 249 240 230 227 219 204 188 192 195 198 200 197 190 187 189 191 192 187 180 180 190 203 205 205 207 210 215 216 219 227
102 166 170 269 239 197 230 239 201 206 203 216 243 258 248 253 231 230 217 199 199 202 202 200 197 191 191 193 192 190 193 187 176 185 199 202 195 198 209 216 215 217 226 230
129 138 140 248 305 81 255 232 205 205 206 192 218 242 273 262 238 232 221 207 210 209 204 196 192 192 193 194 189 191 192 177 179 192 199 197 196 203 212 214 213 220 226 226
138 124 141 173 112 225 246 242 190 202 231 219 243 266 251 235 244 246 220 198 207 206 202 203 198 194 189 183 182 181 168 173 186 196 201 199 199 208 210 207 218 224 220 222
148 141 134 138 190 269 284 232 168 183 264 219 232 274 273 276 55 4 334 242 213 215 212 202 194 190 179 172 170 157 166 174 185 201 208 206 200 204 206 212 222 220 216 226
72 107 125 141 172 235 251 178 137 120 287 254 192 272 312 83 84 290 317 324 8 28 43 140 136 127 149 163 147 154 173 180 200 206 207 202 195 200 210 218 223 218 218 232
83 77 133 165 210 258 258 174 112 164 247 284 152 156 104 113 191 264 321 19 63 63 58 79 105 124 144 135 138 158 174 202 211 196 186 186 194 205 216 221 222 224 228 238
167 156 173 149 195 256 282 132 177 213 215 133 115 125 126 135 357 1 18 37 60 65 60 75 95 97 94 122 142 162 199 216 167 155 172 193 202 212 218 220 234 233 231 241
187 185 181 185 213 245 259 227 237 164 169 192 140 142 126 95 60 41 40 40 48 56 61 74 96 89 74 100 132 155 197 125 127 136 169 209 209 209 217 225 242 246 239 245
231 143 150 236 263 264 261 238 220 152 162 143 127 115 102 92 72 59 55 52 56 58 63 72 87 85 73 74 96 119 115 119 116 117 118 103 87 307 251 231 234 243 251 256
210 158 173 250 270 306 335 331 100 93 100 94 86 88 96 96 83 75 65 58 62 63 62 74 86 89 84 80 77 74 87 104 103 98 86 69 41 326 303 288 262 258 254 247
202 183 183 224 227 183 226 29 93 94 87 92 92 75 69 90 99 91 78 67 71 72 71 77 82 85 80 80 71 57 70 91 96 83 64 45 4 321 305 302 301 274 264 275